Location: Arbon
(43.0005°N, 0.7472°E)
Time: 10:59:40
(UTC+00:00)

ERS-1 Rocket - Pass Details

Date: 22 April 2026
Orbit: 747 x 750 km, 98.2° (Epoch: 15 May)

Event Time Altitude Azimuth Distance (km) Brightness Sun altitude
Exits shadow 20:33:55 14° 183° (S) 2,003 4.8 -18.0°
Maximum altitude 20:38:08 56° 260° (W) 887 3.5 -18.6°
Drops below altitude 10° 20:43:04 10° 339° (NNW) 2,280 6.3 -19.3°
Sets 20:45:25 0° 343° (NNW) 3,209 7.2 -19.6°
